Time,TemperatureF,DewpointF,PressureIn,WindDirection,WindDirectionDegrees,WindSpeedMPH,WindSpeedGustMPH,Humidity,HourlyPrecipIn,Conditions,Clouds,dailyrainin,SoftwareType,DateUTC
2013-04-22 00:03:00,37.0,27.0,30.20,South,181,5.0,17.0,67,0.00,,,0.00,,2013-04-22 04:03:00,
2013-04-22 00:12:00,37.0,27.0,30.20,South,181,5.0,17.0,67,0.00,,,0.00,,2013-04-22 04:12:00,
2013-04-22 00:23:00,37.0,27.0,30.19,East,90,3.0,16.0,68,0.00,,,0.00,,2013-04-22 04:23:00,
2013-04-22 00:33:00,37.0,28.0,30.18,SSE,152,4.0,19.0,69,0.00,,,0.00,,2013-04-22 04:33:00,
2013-04-22 00:43:00,37.0,28.0,30.18,SSE,152,4.0,19.0,69,0.00,,,0.00,,2013-04-22 04:43:00,
2013-04-22 00:52:00,37.0,28.0,30.17,NNE,17,6.0,17.0,69,0.00,,,0.00,,2013-04-22 04:52:00,
2013-04-22 01:02:00,37.0,28.0,30.17,SSE,164,3.0,19.0,69,0.00,,,0.00,,2013-04-22 05:02:00,
2013-04-22 01:12:00,37.0,28.0,30.17,SSE,164,3.0,19.0,69,0.00,,,0.00,,2013-04-22 05:12:00,
2013-04-22 01:22:00,37.0,28.0,30.17,SSE,147,3.0,11.0,70,0.00,,,0.00,,2013-04-22 05:22:00,
2013-04-22 01:32:00,37.0,28.0,30.17,SSE,167,3.0,14.0,69,0.00,,,0.00,,2013-04-22 05:32:00,
2013-04-22 01:42:00,37.0,28.0,30.17,SSE,167,3.0,14.0,69,0.00,,,0.00,,2013-04-22 05:42:00,
2013-04-22 01:52:00,37.0,28.0,30.17,SSE,165,2.0,17.0,69,0.00,,,0.00,,2013-04-22 05:52:00,
2013-04-22 02:02:00,37.0,28.0,30.17,SSW,211,0.0,7.0,69,0.00,,,0.00,,2013-04-22 06:02:00,
2013-04-22 02:12:00,37.0,28.0,30.17,SSW,211,0.0,7.0,69,0.00,,,0.00,,2013-04-22 06:12:00,
2013-04-22 02:21:00,38.0,28.0,30.17,SE,128,1.0,8.0,67,0.00,,,0.00,,2013-04-22 06:21:00,
2013-04-22 02:32:00,38.0,27.0,30.16,West,267,1.0,10.0,65,0.00,,,0.00,,2013-04-22 06:32:00,
2013-04-22 02:42:00,38.0,27.0,30.16,West,267,1.0,10.0,65,0.00,,,0.00,,2013-04-22 06:42:00,
2013-04-22 02:52:00,38.0,29.0,30.16,SE,144,2.0,10.0,69,0.00,,,0.00,,2013-04-22 06:52:00,
2013-04-22 03:01:00,36.0,30.0,30.16,ESE,119,3.0,11.0,80,0.05,,,0.05,,2013-04-22 07:01:00,
2013-04-22 03:12:00,36.0,30.0,30.16,ESE,119,3.0,11.0,80,0.05,,,0.05,,2013-04-22 07:12:00,
2013-04-22 03:21:00,35.0,32.0,30.14,NW,315,2.0,11.0,87,0.14,,,0.14,,2013-04-22 07:21:00,
2013-04-22 03:32:00,35.0,32.0,30.12,ENE,76,2.0,11.0,88,0.18,,,0.18,,2013-04-22 07:32:00,
2013-04-22 03:42:00,35.0,32.0,30.12,ENE,76,2.0,11.0,88,0.18,,,0.18,,2013-04-22 07:42:00,
2013-04-22 03:52:00,36.0,33.0,30.13,SSW,192,5.0,18.0,87,0.20,,,0.20,,2013-04-22 07:52:00,
2013-04-22 04:02:00,36.0,32.0,30.12,SE,129,3.0,16.0,85,0.15,,,0.21,,2013-04-22 08:02:00,
2013-04-22 04:11:00,36.0,32.0,30.12,SE,129,3.0,16.0,85,0.15,,,0.21,,2013-04-22 08:11:00,
2013-04-22 04:22:00,36.0,32.0,30.11,SE,145,4.0,14.0,86,0.08,,,0.22,,2013-04-22 08:22:00,
2013-04-22 04:32:00,36.0,32.0,30.11,SSW,207,5.0,16.0,86,0.06,,,0.24,,2013-04-22 08:32:00,
2013-04-22 04:42:00,36.0,32.0,30.11,SSW,207,5.0,16.0,86,0.06,,,0.24,,2013-04-22 08:42:00,
2013-04-22 04:52:00,36.0,33.0,30.10,East,82,1.0,13.0,87,0.04,,,0.24,,2013-04-22 08:52:00,
2013-04-22 05:01:00,36.0,32.0,30.10,South,171,4.0,15.0,86,0.03,,,0.24,,2013-04-22 09:01:00,
2013-04-22 05:11:00,36.0,32.0,30.10,South,171,4.0,15.0,86,0.03,,,0.24,,2013-04-22 09:11:00,
2013-04-22 05:21:00,36.0,32.0,30.11,South,176,5.0,16.0,86,0.02,,,0.24,,2013-04-22 09:21:00,
2013-04-22 05:33:00,37.0,33.0,30.11,South,172,2.0,12.0,86,0.00,,,0.24,,2013-04-22 09:33:00,
2013-04-22 05:42:00,37.0,33.0,30.11,South,172,2.0,12.0,86,0.00,,,0.24,,2013-04-22 09:42:00,
2013-04-22 05:52:00,37.0,33.0,30.12,South,180,2.0,11.0,86,0.00,,,0.24,,2013-04-22 09:52:00,
2013-04-22 06:03:00,37.0,33.0,30.12,SSE,165,1.0,7.0,86,0.00,,,0.24,,2013-04-22 10:03:00,
2013-04-22 06:12:00,37.0,33.0,30.12,SSE,165,1.0,7.0,86,0.00,,,0.24,,2013-04-22 10:12:00,
2013-04-22 06:22:00,37.0,33.0,30.12,SSW,204,2.0,8.0,85,0.00,,,0.24,,2013-04-22 10:22:00,
2013-04-22 06:32:00,37.0,33.0,30.12,South,178,2.0,10.0,85,0.00,,,0.24,,2013-04-22 10:32:00,
2013-04-22 06:42:00,37.0,33.0,30.12,South,178,2.0,10.0,85,0.00,,,0.24,,2013-04-22 10:42:00,
2013-04-22 06:52:00,37.0,33.0,30.12,SSE,153,0.0,7.0,85,0.00,,,0.24,,2013-04-22 10:52:00,
2013-04-22 07:02:00,37.0,33.0,30.13,South,169,1.0,6.0,85,0.00,,,0.24,,2013-04-22 11:02:00,
2013-04-22 07:12:00,37.0,33.0,30.13,South,169,1.0,6.0,85,0.00,,,0.24,,2013-04-22 11:12:00,
2013-04-22 07:22:00,37.0,33.0,30.14,South,180,0.0,3.0,86,0.00,,,0.24,,2013-04-22 11:22:00,
2013-04-22 07:32:00,37.0,34.0,30.14,South,180,0.0,3.0,87,0.00,,,0.24,,2013-04-22 11:32:00,
2013-04-22 07:42:00,37.0,34.0,30.14,South,180,0.0,3.0,87,0.00,,,0.24,,2013-04-22 11:42:00,
2013-04-22 07:52:00,37.0,34.0,30.15,South,180,0.0,4.0,87,0.00,,,0.24,,2013-04-22 11:52:00,
2013-04-22 08:02:00,37.0,34.0,30.15,South,180,0.0,4.0,87,0.00,,,0.24,,2013-04-22 12:02:00,
2013-04-22 08:12:00,37.0,34.0,30.15,South,180,0.0,4.0,87,0.00,,,0.24,,2013-04-22 12:12:00,
2013-04-22 08:21:00,37.0,34.0,30.15,South,180,0.0,3.0,88,0.00,,,0.24,,2013-04-22 12:21:00,
2013-04-22 08:32:00,37.0,34.0,30.16,SSE,157,0.0,2.0,89,0.00,,,0.24,,2013-04-22 12:32:00,
2013-04-22 08:42:00,37.0,34.0,30.16,SSE,157,0.0,2.0,89,0.00,,,0.24,,2013-04-22 12:42:00,
2013-04-22 08:52:00,37.0,34.0,30.17,SSE,157,0.0,4.0,89,0.00,,,0.24,,2013-04-22 12:52:00,
2013-04-22 09:01:00,38.0,35.0,30.16,SSE,157,0.0,3.0,89,0.00,,,0.24,,2013-04-22 13:01:00,
2013-04-22 09:11:00,38.0,35.0,30.16,SSE,157,0.0,3.0,89,0.00,,,0.24,,2013-04-22 13:11:00,
2013-04-22 09:22:00,39.0,36.0,30.17,SSE,167,2.0,9.0,88,0.00,,,0.24,,2013-04-22 13:22:00,
2013-04-22 09:32:00,40.0,36.0,30.16,South,180,1.0,6.0,86,0.00,,,0.24,,2013-04-22 13:32:00,
2013-04-22 09:42:00,40.0,36.0,30.16,South,180,1.0,6.0,86,0.00,,,0.24,,2013-04-22 13:42:00,
2013-04-22 09:52:00,40.0,36.0,30.17,SSE,151,0.0,6.0,84,0.00,,,0.24,,2013-04-22 13:52:00,
2013-04-22 10:02:00,40.0,36.0,30.16,South,180,1.0,6.0,84,0.00,,,0.24,,2013-04-22 14:02:00,
2013-04-22 10:11:00,40.0,36.0,30.16,South,180,1.0,6.0,84,0.00,,,0.24,,2013-04-22 14:11:00,
2013-04-22 10:21:00,41.0,36.0,30.17,ESE,119,1.0,7.0,82,0.00,,,0.24,,2013-04-22 14:21:00,
2013-04-22 10:33:00,41.0,36.0,30.17,SE,134,1.0,9.0,81,0.00,,,0.24,,2013-04-22 14:33:00,
2013-04-22 10:42:00,41.0,36.0,30.17,SE,134,1.0,9.0,81,0.00,,,0.24,,2013-04-22 14:42:00,
2013-04-22 10:52:00,42.0,36.0,30.17,South,171,0.0,8.0,80,0.00,,,0.24,,2013-04-22 14:52:00,
2013-04-22 11:02:00,41.0,36.0,30.17,South,178,2.0,10.0,81,0.00,,,0.24,,2013-04-22 15:02:00,
2013-04-22 11:12:00,41.0,36.0,30.17,South,178,2.0,10.0,81,0.00,,,0.24,,2013-04-22 15:12:00,
2013-04-22 11:22:00,42.0,37.0,30.18,SSW,196,0.0,4.0,81,0.00,,,0.24,,2013-04-22 15:22:00,
2013-04-22 11:33:00,41.0,36.0,30.19,South,180,1.0,7.0,81,0.00,,,0.24,,2013-04-22 15:33:00,
2013-04-22 11:43:00,41.0,36.0,30.19,South,180,1.0,7.0,81,0.00,,,0.24,,2013-04-22 15:43:00,
2013-04-22 11:53:00,41.0,36.0,30.19,South,183,1.0,4.0,82,0.00,,,0.24,,2013-04-22 15:53:00,
2013-04-22 12:03:00,39.0,35.0,30.20,West,270,2.0,9.0,84,0.00,,,0.24,,2013-04-22 16:03:00,
2013-04-22 12:12:00,39.0,35.0,30.20,West,270,2.0,9.0,84,0.00,,,0.24,,2013-04-22 16:12:00,
2013-04-22 12:23:00,38.0,34.0,30.20,NNE,18,3.0,9.0,87,0.00,,,0.24,,2013-04-22 16:23:00,
2013-04-22 12:33:00,38.0,34.0,30.20,NE,36,3.0,7.0,87,0.00,,,0.24,,2013-04-22 16:33:00,
2013-04-22 12:42:00,38.0,34.0,30.20,NE,36,3.0,7.0,87,0.00,,,0.24,,2013-04-22 16:42:00,
2013-04-22 12:52:00,38.0,34.0,30.20,NE,34,4.0,8.0,87,0.00,,,0.24,,2013-04-22 16:52:00,
2013-04-22 13:02:00,38.0,34.0,30.20,NNE,26,3.0,8.0,86,0.00,,,0.24,,2013-04-22 17:02:00,
2013-04-22 13:12:00,38.0,34.0,30.20,NNE,26,3.0,8.0,86,0.00,,,0.24,,2013-04-22 17:12:00,
2013-04-22 13:22:00,38.0,34.0,30.19,North,10,3.0,8.0,85,0.00,,,0.24,,2013-04-22 17:22:00,
2013-04-22 13:32:00,39.0,35.0,30.20,North,360,2.0,5.0,85,0.00,,,0.24,,2013-04-22 17:32:00,
2013-04-22 13:42:00,39.0,35.0,30.20,North,360,2.0,5.0,85,0.00,,,0.24,,2013-04-22 17:42:00,
2013-04-22 13:52:00,39.0,33.0,30.19,NNE,21,2.0,7.0,79,0.00,,,0.24,,2013-04-22 17:52:00,
2013-04-22 14:01:00,39.0,33.0,30.20,NNE,33,2.0,4.0,78,0.00,,,0.24,,2013-04-22 18:01:00,
2013-04-22 14:12:00,39.0,33.0,30.20,NNE,33,2.0,4.0,78,0.00,,,0.24,,2013-04-22 18:12:00,
2013-04-22 14:21:00,39.0,32.0,30.20,NNE,33,2.0,5.0,76,0.00,,,0.24,,2013-04-22 18:21:00,
2013-04-22 14:32:00,39.0,33.0,30.20,NNE,33,2.0,4.0,78,0.00,,,0.24,,2013-04-22 18:32:00,
2013-04-22 14:42:00,39.0,33.0,30.20,NNE,33,2.0,4.0,78,0.00,,,0.24,,2013-04-22 18:42:00,
2013-04-22 14:52:00,39.0,32.0,30.20,NNE,27,2.0,6.0,77,0.00,,,0.24,,2013-04-22 18:52:00,
2013-04-22 15:01:00,39.0,33.0,30.20,NNE,19,1.0,7.0,78,0.00,,,0.24,,2013-04-22 19:01:00,
2013-04-22 15:12:00,39.0,33.0,30.20,NNE,19,1.0,7.0,78,0.00,,,0.24,,2013-04-22 19:12:00,
2013-04-22 15:22:00,38.0,32.0,30.20,NNE,14,4.0,8.0,79,0.00,,,0.24,,2013-04-22 19:22:00,
2013-04-22 15:32:00,38.0,32.0,30.21,NNE,17,3.0,8.0,79,0.00,,,0.24,,2013-04-22 19:32:00,
2013-04-22 15:42:00,38.0,32.0,30.21,NNE,17,3.0,8.0,79,0.00,,,0.24,,2013-04-22 19:42:00,
2013-04-22 15:52:00,38.0,32.0,30.21,NE,36,3.0,8.0,78,0.00,,,0.24,,2013-04-22 19:52:00,
2013-04-22 16:02:00,38.0,32.0,30.19,NNE,23,1.0,6.0,79,0.00,,,0.24,,2013-04-22 20:02:00,
2013-04-22 16:11:00,38.0,32.0,30.19,NNE,23,1.0,6.0,79,0.00,,,0.24,,2013-04-22 20:11:00,
2013-04-22 16:22:00,37.0,31.0,30.20,NNE,23,0.0,4.0,79,0.00,,,0.24,,2013-04-22 20:22:00,
2013-04-22 16:32:00,37.0,32.0,30.20,NNE,23,0.0,3.0,81,0.01,,,0.25,,2013-04-22 20:32:00,
2013-04-22 16:42:00,37.0,32.0,30.20,NNE,23,0.0,3.0,81,0.01,,,0.25,,2013-04-22 20:42:00,
2013-04-22 16:52:00,37.0,33.0,30.19,NNE,23,0.0,1.0,85,0.04,,,0.28,,2013-04-22 20:52:00,
2013-04-22 17:02:00,37.0,33.0,30.18,NNE,23,1.0,3.0,86,0.07,,,0.31,,2013-04-22 21:02:00,
2013-04-22 17:11:00,37.0,33.0,30.18,NNE,23,1.0,3.0,86,0.07,,,0.31,,2013-04-22 21:11:00,
2013-04-22 17:21:00,37.0,34.0,30.18,NNE,23,0.0,1.0,87,0.08,,,0.32,,2013-04-22 21:21:00,
2013-04-22 17:32:00,37.0,34.0,30.18,NNE,23,0.0,2.0,89,0.09,,,0.34,,2013-04-22 21:32:00,
2013-04-22 17:43:00,37.0,34.0,30.18,NNE,23,0.0,2.0,89,0.09,,,0.34,,2013-04-22 21:43:00,
2013-04-22 17:53:00,36.0,33.0,30.18,NNE,23,0.0,1.0,89,0.08,,,0.36,,2013-04-22 21:53:00,
2013-04-22 18:03:00,36.0,33.0,30.18,NNE,23,0.0,1.0,90,0.06,,,0.37,,2013-04-22 22:03:00,
2013-04-22 18:12:00,36.0,33.0,30.18,NNE,23,0.0,1.0,90,0.06,,,0.37,,2013-04-22 22:12:00,
2013-04-22 18:22:00,36.0,34.0,30.18,NNE,23,0.0,1.0,91,0.06,,,0.38,,2013-04-22 22:22:00,
2013-04-22 18:33:00,36.0,34.0,30.18,NNE,23,0.0,1.0,91,0.05,,,0.39,,2013-04-22 22:33:00,
2013-04-22 18:42:00,36.0,34.0,30.18,NNE,23,0.0,1.0,91,0.05,,,0.39,,2013-04-22 22:42:00,
2013-04-22 18:52:00,35.0,33.0,30.18,NNE,23,0.0,2.0,92,0.04,,,0.40,,2013-04-22 22:52:00,
2013-04-22 19:02:00,35.0,33.0,30.17,NNE,23,0.0,4.0,93,0.04,,,0.41,,2013-04-22 23:02:00,
2013-04-22 19:11:00,35.0,33.0,30.17,NNE,23,0.0,4.0,93,0.04,,,0.41,,2013-04-22 23:11:00,
2013-04-22 19:21:00,35.0,33.0,30.18,NNE,23,0.0,0.0,93,0.03,,,0.41,,2013-04-22 23:21:00,
2013-04-22 19:33:00,35.0,33.0,30.17,NNE,23,1.0,3.0,93,0.02,,,0.41,,2013-04-22 23:33:00,
2013-04-22 19:42:00,35.0,33.0,30.17,NNE,23,1.0,3.0,93,0.02,,,0.41,,2013-04-22 23:42:00,
2013-04-22 19:52:00,35.0,33.0,30.17,NNE,23,1.0,4.0,93,0.01,,,0.41,,2013-04-22 23:52:00,
2013-04-22 20:02:00,35.0,33.0,30.16,NNE,23,1.0,4.0,94,0.00,,,0.41,,2013-04-23 00:02:00,
2013-04-22 20:12:00,35.0,33.0,30.16,NNE,23,1.0,4.0,94,0.00,,,0.41,,2013-04-23 00:12:00,
2013-04-22 20:21:00,35.0,33.0,30.16,NNE,23,0.0,3.0,94,0.01,,,0.42,,2013-04-23 00:21:00,
2013-04-22 20:32:00,34.0,32.0,30.16,NNE,23,0.0,4.0,94,0.02,,,0.43,,2013-04-23 00:32:00,
2013-04-22 20:42:00,34.0,32.0,30.16,NNE,23,0.0,4.0,94,0.02,,,0.43,,2013-04-23 00:42:00,
2013-04-22 20:51:00,34.0,32.0,30.15,NNE,22,1.0,4.0,94,0.03,,,0.44,,2013-04-23 00:51:00,
2013-04-22 21:01:00,34.0,33.0,30.15,NNE,18,1.0,5.0,95,0.03,,,0.44,,2013-04-23 01:01:00,
2013-04-22 21:11:00,34.0,33.0,30.15,NNE,18,1.0,5.0,95,0.03,,,0.44,,2013-04-23 01:11:00,
2013-04-22 21:21:00,34.0,33.0,30.16,NNE,14,3.0,7.0,95,0.02,,,0.44,,2013-04-23 01:21:00,
2013-04-22 21:32:00,34.0,33.0,30.16,NNE,30,2.0,9.0,95,0.01,,,0.44,,2013-04-23 01:32:00,
2013-04-22 21:42:00,34.0,33.0,30.16,NNE,30,2.0,9.0,95,0.01,,,0.44,,2013-04-23 01:42:00,
2013-04-22 21:52:00,34.0,33.0,30.16,NNE,28,4.0,9.0,95,0.01,,,0.45,,2013-04-23 01:52:00,
2013-04-22 22:02:00,34.0,33.0,30.16,NNE,22,2.0,8.0,95,0.02,,,0.46,,2013-04-23 02:02:00,
2013-04-22 22:12:00,34.0,33.0,30.16,NNE,22,2.0,8.0,95,0.02,,,0.46,,2013-04-23 02:12:00,
2013-04-22 22:21:00,34.0,33.0,30.15,NNE,22,3.0,6.0,95,0.03,,,0.47,,2013-04-23 02:21:00,
2013-04-22 22:32:00,34.0,33.0,30.15,NNE,24,3.0,6.0,96,0.03,,,0.47,,2013-04-23 02:32:00,
2013-04-22 22:42:00,34.0,33.0,30.15,NNE,24,3.0,6.0,96,0.03,,,0.47,,2013-04-23 02:42:00,
2013-04-22 22:52:00,33.0,32.0,30.16,NNE,19,4.0,8.0,96,0.03,,,0.48,,2013-04-23 02:52:00,
2013-04-22 23:01:00,33.0,32.0,30.14,NNE,22,4.0,6.0,96,0.03,,,0.49,,2013-04-23 03:01:00,
2013-04-22 23:11:00,33.0,32.0,30.14,NNE,22,4.0,6.0,96,0.03,,,0.49,,2013-04-23 03:11:00,
2013-04-22 23:21:00,33.0,32.0,30.15,NNE,19,4.0,8.0,96,0.03,,,0.50,,2013-04-23 03:21:00,
2013-04-22 23:33:00,33.0,32.0,30.15,North,10,1.0,9.0,96,0.04,,,0.51,,2013-04-23 03:33:00,
2013-04-22 23:43:00,33.0,32.0,30.15,North,10,1.0,9.0,96,0.04,,,0.51,,2013-04-23 03:43:00,
2013-04-22 23:52:00,33.0,32.0,30.14,North,360,2.0,7.0,96,0.04,,,0.52,,2013-04-23 03:52:00,